AUA42 KIAD-LOWW

Flight info

Callsign AUA42
Flight time N/A
Altitude 37000
Route JCOBY4 SWANN DCT BROSS Q419 RBV Q22 FOXWD DCT TAFFY DCT CUDDY DCT 59N050W 6030N04000W/M082F370 6130N03000W 62N020W 62N010W DCT PEMOS DCT PEPIN DCT PIXEG DCT DOSUR/N0463F390 DCT OMELO DCT EVIKU DCT BITSI DCT MIKOV MIKOV8W
Aircraft A343/H-SDE2E3FGHIJ4J5M1RWXY/LB1D1

Departure

Time 2026-05-01 09:00
Airport Washington Dulles International Airport (KIAD)

Arrival

Time N/A
Airport Vienna International Airport (LOWW)
Time Latitude Longitude Altitude Speed Heading
2026-05-01 08:28 38.94935 -77.44931 301 ft 0 kts 193°
2026-05-01 08:51 38.94949 -77.44926 300 ft 4 kts 192°
2026-05-01 08:51 38.94975 -77.44921 298 ft 4 kts 190°
2026-05-01 08:52 38.95001 -77.44911 298 ft 4 kts 208°
2026-05-01 08:52 38.95022 -77.44891 298 ft 4 kts 239°
2026-05-01 08:52 38.95028 -77.44867 300 ft 1 kts 270°
2026-05-01 08:52 38.95028 -77.44862 300 ft 0 kts 270°
2026-05-01 08:55 38.95029 -77.44899 298 ft 8 kts 271°
2026-05-01 08:55 38.95030 -77.45045 300 ft 23 kts 271°
2026-05-01 08:55 38.95033 -77.45246 296 ft 22 kts 270°
2026-05-01 08:56 38.95033 -77.45436 296 ft 21 kts 270°
2026-05-01 08:56 38.95032 -77.45615 297 ft 20 kts 267°
2026-05-01 08:56 38.95004 -77.45703 301 ft 9 kts 211°
2026-05-01 08:56 38.94894 -77.45720 298 ft 23 kts 180°
2026-05-01 08:57 38.94712 -77.45723 301 ft 26 kts 181°
2026-05-01 08:57 38.94534 -77.45725 299 ft 25 kts 180°
2026-05-01 08:57 38.94367 -77.45726 299 ft 23 kts 181°
2026-05-01 08:57 38.94209 -77.45729 300 ft 22 kts 180°
2026-05-01 08:58 38.94048 -77.45730 299 ft 23 kts 180°
2026-05-01 08:58 38.93925 -77.45757 301 ft 11 kts 232°
2026-05-01 08:58 38.93917 -77.45835 299 ft 8 kts 268°
2026-05-01 08:58 38.93929 -77.45933 302 ft 15 kts 303°
2026-05-01 08:59 38.94054 -77.45976 302 ft 28 kts 359°
2026-05-01 08:59 38.94420 -77.45971 300 ft 78 kts
2026-05-01 08:59 38.95121 -77.45961 296 ft 122 kts
2026-05-01 08:59 38.96095 -77.45945 297 ft 158 kts
2026-05-01 09:00 38.97225 -77.45929 658 ft 160 kts 360°
2026-05-01 09:00 38.98331 -77.45961 1127 ft 160 kts 352°
2026-05-01 09:00 38.99444 -77.45795 1493 ft 172 kts 26°
2026-05-01 09:00 39.00389 -77.44718 1784 ft 192 kts 41°
2026-05-01 09:01 39.01380 -77.43473 2087 ft 208 kts 37°
2026-05-01 09:01 39.02563 -77.42217 2324 ft 231 kts 33°
2026-05-01 09:01 39.03884 -77.40969 2903 ft 239 kts 31°
2026-05-01 09:01 39.05242 -77.39753 3611 ft 243 kts 30°
2026-05-01 09:02 39.06655 -77.38523 4294 ft 248 kts 29°
2026-05-01 09:02 39.08110 -77.37275 5001 ft 253 kts 28°
2026-05-01 09:02 39.09594 -77.36012 5674 ft 258 kts 29°
2026-05-01 09:02 39.11111 -77.34726 6321 ft 263 kts 29°
2026-05-01 09:03 39.12650 -77.33423 7024 ft 266 kts 28°
2026-05-01 09:03 39.14146 -77.31999 7719 ft 272 kts 39°
2026-05-01 09:03 39.15210 -77.29936 8372 ft 287 kts 67°
2026-05-01 09:03 39.15390 -77.27345 9021 ft 298 kts 95°
2026-05-01 09:04 39.14985 -77.24700 9689 ft 303 kts 100°
2026-05-01 09:04 39.14501 -77.22042 10274 ft 309 kts 102°
2026-05-01 09:04 39.14004 -77.19265 10533 ft 326 kts 102°
2026-05-01 09:04 39.13493 -77.16338 10774 ft 343 kts 101°
2026-05-01 09:05 39.12989 -77.13269 10991 ft 358 kts 101°
2026-05-01 09:05 39.12480 -77.10063 11241 ft 373 kts 101°
2026-05-01 09:05 39.11950 -77.06730 11544 ft 386 kts 101°
2026-05-01 09:05 39.11405 -77.03309 12022 ft 393 kts 101°
2026-05-01 09:06 39.10883 -76.99825 12557 ft 399 kts 98°
2026-05-01 09:06 39.10749 -76.96235 13080 ft 404 kts 88°
2026-05-01 09:06 39.10833 -76.92596 13628 ft 410 kts 87°
2026-05-01 09:06 39.10941 -76.88905 14120 ft 415 kts 88°
2026-05-01 09:07 39.11045 -76.85170 14585 ft 421 kts 88°
2026-05-01 09:07 39.11145 -76.81377 15020 ft 427 kts 88°
2026-05-01 09:07 39.11244 -76.77525 15507 ft 432 kts 88°
2026-05-01 09:07 39.11340 -76.73648 15970 ft 436 kts 88°
2026-05-01 09:08 39.11436 -76.69719 16446 ft 441 kts 88°
2026-05-01 09:08 39.11530 -76.65749 16871 ft 446 kts 88°
2026-05-01 09:08 39.11625 -76.61733 17348 ft 451 kts 88°
2026-05-01 09:08 39.11719 -76.57678 17807 ft 456 kts 88°
2026-05-01 09:09 39.11822 -76.53581 18261 ft 460 kts 86°
2026-05-01 09:09 39.12142 -76.49524 18662 ft 463 kts 81°
2026-05-01 09:09 39.12602 -76.45402 19069 ft 467 kts 80°
2026-05-01 09:09 39.13078 -76.41257 19510 ft 469 kts 80°
2026-05-01 09:10 39.13554 -76.37086 19937 ft 472 kts 80°
2026-05-01 09:10 39.14029 -76.32890 20357 ft 475 kts 81°
2026-05-01 09:10 39.14510 -76.28620 20784 ft 477 kts 81°
2026-05-01 09:10 39.14979 -76.24429 21173 ft 480 kts 81°
2026-05-01 09:11 39.15466 -76.20112 21578 ft 482 kts 81°
2026-05-01 09:11 39.15959 -76.15826 21969 ft 485 kts 81°
2026-05-01 09:11 39.16456 -76.11521 22335 ft 487 kts 81°
2026-05-01 09:11 39.16955 -76.07188 22706 ft 490 kts 81°
2026-05-01 09:12 39.17454 -76.02834 23071 ft 493 kts 81°
2026-05-01 09:12 39.17947 -75.98507 23422 ft 495 kts 81°
2026-05-01 09:12 39.18603 -75.94139 23753 ft 497 kts 72°
2026-05-01 09:12 39.19786 -75.89963 24023 ft 496 kts 60°
2026-05-01 09:13 39.21553 -75.86180 24326 ft 491 kts 47°
2026-05-01 09:13 39.23828 -75.82950 24619 ft 485 kts 38°
2026-05-01 09:13 39.26315 -75.80000 24917 ft 485 kts 35°
2026-05-01 09:13 39.28876 -75.77172 25164 ft 486 kts 33°
2026-05-01 09:14 39.31487 -75.74375 25426 ft 488 kts 33°
2026-05-01 09:14 39.34107 -75.71583 25717 ft 490 kts 33°
2026-05-01 09:14 39.36739 -75.68761 26042 ft 492 kts 33°
2026-05-01 09:14 39.39366 -75.65919 26351 ft 493 kts 33°
2026-05-01 09:15 39.41991 -75.63055 26611 ft 495 kts 33°
2026-05-01 09:15 39.44625 -75.60169 26878 ft 497 kts 33°
2026-05-01 09:15 39.47270 -75.57266 27143 ft 499 kts 33°
2026-05-01 09:15 39.49918 -75.54345 27392 ft 501 kts 33°
2026-05-01 09:16 39.52572 -75.51411 27637 ft 503 kts 33°
2026-05-01 09:16 39.55235 -75.48464 27885 ft 505 kts 34°
2026-05-01 09:16 39.57910 -75.45501 28148 ft 506 kts 33°
2026-05-01 09:17 39.63285 -75.39552 28654 ft 509 kts 34°
2026-05-01 09:17 39.65977 -75.36568 28883 ft 510 kts 34°
2026-05-01 09:17 39.71392 -75.30549 29323 ft 514 kts 34°
2026-05-01 09:18 39.74109 -75.27523 29541 ft 515 kts 34°
2026-05-01 09:18 39.79451 -75.21263 30082 ft 522 kts 41°
2026-05-01 09:19 39.84336 -75.14254 30562 ft 523 kts 43°
2026-05-01 09:19 39.86739 -75.10692 30770 ft 524 kts 43°
2026-05-01 09:19 39.89132 -75.07117 30984 ft 524 kts 43°
2026-05-01 09:20 39.93903 -74.99968 31541 ft 522 kts 44°
2026-05-01 09:20 39.98383 -74.92518 32025 ft 525 kts 50°
2026-05-01 09:21 40.02495 -74.84615 32395 ft 527 kts 52°
2026-05-01 09:21 40.04520 -74.80630 32585 ft 527 kts 52°
2026-05-01 09:21 40.08557 -74.72647 32948 ft 527 kts 52°
2026-05-01 09:22 40.12597 -74.64656 33423 ft 525 kts 52°
2026-05-01 09:22 40.16615 -74.56708 33828 ft 524 kts 52°
2026-05-01 09:23 40.18648 -74.52749 33965 ft 523 kts 49°
2026-05-01 09:23 40.23613 -74.45972 34229 ft 512 kts 35°
2026-05-01 09:24 40.29030 -74.40032 34529 ft 511 kts 34°
2026-05-01 09:24 40.31782 -74.37107 34729 ft 509 kts 34°
2026-05-01 09:24 40.37285 -74.31272 34899 ft 511 kts 34°
2026-05-01 09:25 40.42819 -74.25365 34967 ft 515 kts 34°
2026-05-01 09:26 40.51208 -74.16346 34981 ft 525 kts 35°
2026-05-01 09:26 40.59743 -74.07133 34969 ft 533 kts 35°
2026-05-01 09:27 40.68327 -73.97816 34990 ft 533 kts 36°
2026-05-01 09:28 40.74030 -73.91610 34944 ft 532 kts 36°
2026-05-01 09:28 40.79736 -73.85392 34968 ft 532 kts 36°
2026-05-01 09:29 40.87759 -73.75277 34946 ft 537 kts 50°
2026-05-01 09:30 40.93599 -73.64613 34925 ft 539 kts 53°
2026-05-01 09:30 41.00011 -73.52391 34934 ft 539 kts 53°
2026-05-01 09:31 41.04290 -73.44251 34941 ft 539 kts 53°
2026-05-01 09:32 41.10717 -73.32031 34939 ft 539 kts 53°
2026-05-01 09:32 41.17142 -73.19776 34969 ft 539 kts 54°
2026-05-01 09:33 41.21416 -73.11591 34931 ft 540 kts 54°
2026-05-01 09:34 41.27822 -72.99284 34925 ft 540 kts 54°
2026-05-01 09:34 41.33875 -72.86648 34937 ft 540 kts 59°
2026-05-01 09:35 41.39509 -72.73655 34922 ft 540 kts 59°
2026-05-01 09:36 41.43321 -72.65027 34915 ft 540 kts 59°
2026-05-01 09:36 41.47152 -72.56417 34907 ft 540 kts 59°
2026-05-01 09:37 41.50955 -72.47860 34910 ft 540 kts 59°
2026-05-01 09:37 41.56679 -72.34926 34906 ft 540 kts 59°
2026-05-01 09:38 41.62386 -72.21968 34909 ft 539 kts 59°
2026-05-01 09:39 41.68072 -72.09002 34906 ft 538 kts 59°
2026-05-01 09:39 41.71846 -72.00363 34905 ft 538 kts 59°
2026-05-01 09:40 41.77510 -71.87371 34890 ft 538 kts 58°
2026-05-01 09:41 41.82267 -71.79753 34883 ft 532 kts 38°
2026-05-01 09:41 41.88443 -71.74407 34882 ft 528 kts 27°
2026-05-01 09:41 41.91663 -71.72023 34880 ft 529 kts 26°
2026-05-01 09:42 41.98158 -71.67372 34886 ft 529 kts 25°
2026-05-01 09:43 42.11143 -71.57980 34883 ft 530 kts 26°
2026-05-01 09:43 42.17614 -71.53237 34881 ft 529 kts 26°
2026-05-01 09:44 42.27313 -71.46103 34883 ft 529 kts 26°
2026-05-01 09:45 42.33771 -71.41344 34881 ft 529 kts 27°
2026-05-01 09:45 42.43424 -71.34206 34868 ft 529 kts 27°
2026-05-01 09:46 42.49882 -71.29416 34874 ft 529 kts 27°
2026-05-01 09:46 42.56336 -71.24617 34885 ft 529 kts 27°
2026-05-01 09:47 42.62788 -71.19810 34883 ft 529 kts 27°
2026-05-01 09:47 42.69242 -71.14991 34885 ft 529 kts 27°
2026-05-01 09:48 42.75689 -71.10165 34878 ft 529 kts 27°
2026-05-01 09:48 42.82139 -71.05323 34875 ft 529 kts 27°
2026-05-01 09:49 42.88594 -71.00467 34869 ft 530 kts 28°
2026-05-01 09:49 42.95047 -70.95601 34834 ft 530 kts 28°
2026-05-01 09:50 43.01497 -70.90725 34836 ft 530 kts 28°
2026-05-01 09:50 43.07946 -70.85842 34836 ft 530 kts 28°
2026-05-01 09:51 43.14404 -70.80937 34831 ft 531 kts 28°
2026-05-01 09:51 43.20863 -70.76016 34834 ft 531 kts 28°
2026-05-01 09:52 43.27320 -70.71085 34839 ft 531 kts 28°
2026-05-01 09:52 43.33769 -70.66150 34832 ft 531 kts 29°
2026-05-01 09:53 43.40224 -70.61199 34832 ft 531 kts 29°
2026-05-01 09:53 43.46683 -70.56233 34834 ft 532 kts 29°
2026-05-01 09:54 43.53136 -70.51258 34837 ft 532 kts 29°
2026-05-01 09:54 43.59597 -70.46265 34837 ft 532 kts 29°
2026-05-01 09:55 43.66056 -70.41262 34832 ft 533 kts 29°
2026-05-01 09:55 43.72474 -70.36278 34829 ft 533 kts 30°
2026-05-01 09:56 43.78932 -70.31250 34831 ft 533 kts 30°
2026-05-01 09:56 43.85390 -70.26209 34819 ft 533 kts 30°
2026-05-01 09:57 43.91846 -70.21157 34817 ft 532 kts 30°
2026-05-01 09:57 43.98291 -70.16101 34816 ft 532 kts 30°
2026-05-01 09:58 44.04738 -70.11032 34816 ft 532 kts 30°
2026-05-01 09:58 44.11171 -70.05960 34816 ft 532 kts 30°
2026-05-01 09:59 44.17608 -70.00872 34817 ft 532 kts 31°
2026-05-01 09:59 44.24040 -69.95775 34811 ft 532 kts 31°
2026-05-01 10:00 44.30325 -69.90782 34795 ft 531 kts 31°
2026-05-01 10:00 44.36373 -69.85965 34798 ft 531 kts 31°
2026-05-01 10:01 44.42798 -69.80836 34811 ft 531 kts 31°
2026-05-01 10:01 44.49208 -69.75707 34788 ft 531 kts 31°
2026-05-01 10:02 44.55620 -69.70562 34787 ft 531 kts 31°